Wetterdaten: Dienstag, 03.01.2012
Datum Zeit Temp. a Sch. Temp. a Son. Temp. a Bod. Feuchte a. Luftdruck Regen Wind Richtung Richtung Sonnenschein Helligkeit Taupunkt Windchill
03.01.2012 00:03 4,0 C 2,6 C 1,6 C 83 % 1018 hPa 0,0 l/m 1,4 m/s (1 Bft) W-SW 240 0 min 0 lux 1,4 C 4,0 C
03.01.2012 00:08 4,0 C 2,6 C 1,5 C 83 % 1018 hPa 0,0 l/m 0,1 m/s (0 Bft) W 275 0 min 0 lux 1,4 C 4,0 C
03.01.2012 00:13 4,0 C 2,5 C 1,4 C 83 % 1018 hPa 0,0 l/m 1,8 m/s (2 Bft) W-SW22.5 255 0 min 0 lux 1,4 C 4,0 C
03.01.2012 00:18 4,0 C 2,5 C 1,4 C 83 % 1018 hPa 0,0 l/m 1,4 m/s (1 Bft) W22.5 265 0 min 0 lux 1,4 C 4,0 C
03.01.2012 00:23 4,0 C 2,4 C 1,4 C 83 % 1018 hPa 0,0 l/m 2,0 m/s (2 Bft) W-SW22.5 245 0 min 0 lux 1,4 C 3,4 C
03.01.2012 00:28 4,0 C 2,4 C 1,4 C 82 % 1018 hPa 0,0 l/m 2,5 m/s (2 Bft) W22.5 260 0 min 0 lux 1,2 C 1,7 C
03.01.2012 00:33 4,0 C 2,3 C 1,4 C 82 % 1018 hPa 0,0 l/m 1,9 m/s (2 Bft) W-SW22.5 255 0 min 0 lux 1,2 C 3,6 C
03.01.2012 00:38 4,0 C 2,3 C 1,4 C 82 % 1018 hPa 0,0 l/m 2,3 m/s (2 Bft) W22.5 275 0 min 0 lux 1,2 C 2,4 C
03.01.2012 00:43 4,0 C 2,3 C 1,2 C 82 % 1018 hPa 0,0 l/m 0,3 m/s (1 Bft) W-NW22.5 285 0 min 0 lux 1,2 C 4,0 C
03.01.2012 00:48 4,0 C 2,3 C 1,3 C 82 % 1018 hPa 0,0 l/m 3,8 m/s (3 Bft) W45 275 0 min 0 lux 1,2 C -1,4 C
03.01.2012 00:53 4,0 C 2,3 C 1,2 C 82 % 1018 hPa 0,0 l/m 3,3 m/s (2 Bft) W45 270 0 min 0 lux 1,2 C -0,3 C
03.01.2012 00:58 4,0 C 2,3 C 1,1 C 82 % 1018 hPa 0,0 l/m 4,0 m/s (3 Bft) W22.5 275 0 min 0 lux 1,2 C -1,8 C
03.01.2012 01:03 4,0 C 2,3 C 1,1 C 82 % 1018 hPa 0,0 l/m 4,0 m/s (3 Bft) W22.5 275 0 min 0 lux 1,2 C -1,8 C
03.01.2012 01:08 4,0 C 2,2 C 1,1 C 82 % 1018 hPa 0,4 l/m 2,3 m/s (2 Bft) W22.5 265 0 min 0 lux 1,2 C 2,3 C
03.01.2012 01:13 4,0 C 2,2 C 0,9 C 82 % 1018 hPa 0,0 l/m 2,2 m/s (2 Bft) W22.5 280 0 min 0 lux 1,2 C 2,6 C
03.01.2012 01:18 4,0 C 2,2 C 1,1 C 82 % 1018 hPa 0,0 l/m 3,2 m/s (2 Bft) W45 265 0 min 0 lux 1,2 C -0,1 C
03.01.2012 01:23 4,0 C 2,2 C 1,0 C 82 % 1018 hPa 0,0 l/m 3,2 m/s (2 Bft) W-NW22.5 300 0 min 0 lux 1,2 C -0,1 C
03.01.2012 01:28 4,0 C 2,1 C 1,0 C 82 % 1019 hPa 0,0 l/m 0,0 m/s (0 Bft) W-NW22.5 295 0 min 0 lux 1,2 C 4,0 C
03.01.2012 01:33 4,0 C 2,1 C 1,1 C 82 % 1019 hPa 0,0 l/m 2,9 m/s (2 Bft) W45 275 0 min 0 lux 1,2 C 0,5 C
03.01.2012 01:38 4,0 C 2,1 C 1,1 C 82 % 1019 hPa 0,0 l/m 3,6 m/s (3 Bft) NW45 305 0 min 0 lux 1,2 C -0,9 C
03.01.2012 01:43 4,0 C 2,1 C 0,9 C 82 % 1019 hPa 0,0 l/m 1,5 m/s (1 Bft) W22.5 270 0 min 0 lux 1,2 C 4,0 C
03.01.2012 01:48 4,0 C 2,0 C 0,8 C 82 % 1019 hPa 0,0 l/m 1,9 m/s (2 Bft) W 265 0 min 0 lux 1,2 C 3,5 C
03.01.2012 01:53 4,0 C 2,0 C 0,9 C 82 % 1019 hPa 0,0 l/m 0,3 m/s (0 Bft) W45 275 0 min 0 lux 1,2 C 4,0 C
03.01.2012 01:58 4,0 C 2,0 C 0,8 C 81 % 1019 hPa 0,0 l/m 2,4 m/s (2 Bft) W-NW45 285 0 min 0 lux 1,0 C 2,0 C
03.01.2012 02:03 4,0 C 1,9 C 0,8 C 81 % 1019 hPa 0,0 l/m 2,4 m/s (2 Bft) W-NW45 285 0 min 0 lux 1,0 C 2,0 C
03.01.2012 02:07 4,0 C 1,9 C 1,1 C 81 % 1019 hPa 0,0 l/m 0,3 m/s (0 Bft) W-SW22.5 240 0 min 0 lux 1,0 C 4,0 C
03.01.2012 02:12 4,0 C 1,9 C 1,0 C 81 % 1019 hPa 0,0 l/m 0,2 m/s (0 Bft) SW 220 0 min 0 lux 1,0 C 4,0 C
03.01.2012 02:17 4,0 C 1,8 C 1,0 C 81 % 1019 hPa 0,0 l/m 0,1 m/s (0 Bft) W-SW22.5 245 0 min 0 lux 1,0 C 4,0 C
03.01.2012 02:22 4,0 C 1,8 C 1,4 C 81 % 1019 hPa 0,0 l/m 0,4 m/s (1 Bft) SW22.5 230 0 min 0 lux 1,0 C 4,0 C
03.01.2012 02:27 4,0 C 1,9 C 1,4 C 81 % 1019 hPa 0,0 l/m 0,0 m/s (0 Bft) W 260 0 min 0 lux 1,0 C 4,0 C
03.01.2012 02:32 4,0 C 1,9 C 1,4 C 81 % 1019 hPa 0,0 l/m 0,3 m/s (1 Bft) W-SW22.5 245 0 min 0 lux 1,0 C 4,0 C
03.01.2012 02:37 4,0 C 2,0 C 1,5 C 81 % 1019 hPa 0,0 l/m 3,2 m/s (2 Bft) W-SW45 240 0 min 0 lux 1,0 C -0,1 C
03.01.2012 02:42 4,0 C 2,0 C 1,5 C 81 % 1019 hPa 0,0 l/m 0,2 m/s (0 Bft) W-SW 240 0 min 0 lux 1,0 C 4,0 C
03.01.2012 02:48 4,0 C 2,1 C 1,6 C 81 % 1019 hPa 0,0 l/m 1,7 m/s (2 Bft) SW22.5 230 0 min 0 lux 1,0 C 4,0 C
03.01.2012 02:53 4,0 C 2,1 C 1,5 C 81 % 1019 hPa 0,0 l/m 3,2 m/s (2 Bft) W-SW45 255 0 min 0 lux 1,0 C -0,1 C
03.01.2012 02:58 4,0 C 2,1 C 1,3 C 81 % 1019 hPa 0,0 l/m 1,2 m/s (1 Bft) W-SW 250 0 min 0 lux 1,0 C 4,0 C
03.01.2012 03:03 4,0 C 2,1 C 1,2 C 81 % 1019 hPa 0,0 l/m 1,8 m/s (2 Bft) W45 270 0 min 0 lux 1,0 C 4,0 C
03.01.2012 03:08 4,0 C 1,9 C 1,1 C 81 % 1019 hPa 0,0 l/m 0,0 m/s (0 Bft) W-SW 255 0 min 0 lux 1,0 C 4,0 C
03.01.2012 03:13 4,0 C 1,9 C 1,1 C 81 % 1019 hPa 0,0 l/m 0,9 m/s (1 Bft) SW22.5 215 0 min 0 lux 1,0 C 4,0 C
03.01.2012 03:18 4,0 C 1,9 C 0,9 C 81 % 1019 hPa 0,0 l/m 0,1 m/s (0 Bft) W-SW 250 0 min 0 lux 1,0 C 4,0 C
03.01.2012 03:23 4,0 C 1,9 C 1,0 C 81 % 1019 hPa 0,0 l/m 3,5 m/s (3 Bft) W-SW22.5 255 0 min 0 lux 1,0 C -0,7 C
03.01.2012 03:28 4,0 C 1,9 C 1,1 C 81 % 1019 hPa 0,0 l/m 4,2 m/s (3 Bft) W-SW22.5 250 0 min 0 lux 1,0 C -2,2 C
03.01.2012 03:33 4,0 C 1,9 C 1,0 C 81 % 1019 hPa 0,0 l/m 2,5 m/s (2 Bft) W-SW22.5 240 0 min 0 lux 1,0 C 1,7 C
03.01.2012 03:38 4,0 C 1,9 C 0,9 C 80 % 1020 hPa 0,0 l/m 3,5 m/s (3 Bft) W-SW22.5 250 0 min 0 lux 0,9 C -0,7 C
03.01.2012 03:43 4,0 C 1,9 C 0,9 C 80 % 1020 hPa 0,0 l/m 4,2 m/s (3 Bft) W-SW45 250 0 min 0 lux 0,9 C -2,1 C
03.01.2012 03:48 4,0 C 1,9 C 0,8 C 80 % 1020 hPa 0,0 l/m 2,6 m/s (2 Bft) W-SW22.5 240 0 min 0 lux 0,9 C 1,4 C
03.01.2012 03:53 4,0 C 1,9 C 1,2 C 80 % 1020 hPa 0,0 l/m 4,2 m/s (3 Bft) SW45 235 0 min 0 lux 0,9 C -2,2 C
03.01.2012 03:58 4,0 C 1,9 C 1,4 C 80 % 1020 hPa 0,0 l/m 4,0 m/s (3 Bft) SW22.5 225 0 min 0 lux 0,9 C -1,8 C
03.01.2012 04:03 4,0 C 2,1 C 1,4 C 80 % 1020 hPa 0,0 l/m 4,1 m/s (3 Bft) SW45 230 0 min 0 lux 0,9 C -2,0 C
03.01.2012 04:08 4,0 C 2,1 C 1,2 C 80 % 1020 hPa 0,0 l/m 3,6 m/s (3 Bft) S-SW45 210 0 min 0 lux 0,9 C -1,1 C
03.01.2012 04:13 4,0 C 2,1 C 1,1 C 80 % 1020 hPa 0,0 l/m 3,5 m/s (3 Bft) S-SW67.5 205 0 min 0 lux 0,9 C -0,8 C
03.01.2012 04:18 4,0 C 2,1 C 1,0 C 80 % 1020 hPa 0,0 l/m 2,6 m/s (2 Bft) SW67.5 225 0 min 0 lux 0,9 C 1,6 C
03.01.2012 04:23 4,0 C 2,1 C 1,1 C 80 % 1020 hPa 0,0 l/m 3,7 m/s (3 Bft) SW45 220 0 min 0 lux 0,9 C -1,2 C
03.01.2012 04:28 4,0 C 2,1 C 1,1 C 80 % 1019 hPa 0,0 l/m 4,9 m/s (3 Bft) SW45 230 0 min 0 lux 0,9 C -3,5 C
03.01.2012 04:33 4,0 C 2,1 C 1,0 C 80 % 1019 hPa 0,0 l/m 3,6 m/s (3 Bft) SW45 220 0 min 0 lux 0,9 C -1,0 C
03.01.2012 04:38 4,0 C 2,1 C 1,0 C 80 % 1019 hPa 0,0 l/m 4,4 m/s (3 Bft) SW45 230 0 min 0 lux 0,9 C -2,5 C
03.01.2012 04:43 4,0 C 2,1 C 1,0 C 80 % 1019 hPa 0,0 l/m 4,4 m/s (3 Bft) SW67.5 230 0 min 0 lux 0,9 C -2,7 C
03.01.2012 04:48 4,0 C 2,2 C 1,0 C 80 % 1019 hPa 0,0 l/m 4,2 m/s (3 Bft) SW45 230 0 min 0 lux 0,9 C -2,1 C
03.01.2012 04:53 4,0 C 2,3 C 1,2 C 80 % 1019 hPa 0,0 l/m 5,2 m/s (3 Bft) SW22.5 230 0 min 0 lux 0,9 C -3,9 C
03.01.2012 04:58 4,0 C 2,3 C 1,3 C 80 % 1019 hPa 0,0 l/m 2,4 m/s (2 Bft) S-SW45 205 0 min 0 lux 0,9 C 1,9 C
03.01.2012 05:03 4,0 C 2,3 C 1,3 C 80 % 1019 hPa 0,0 l/m 2,4 m/s (2 Bft) S-SW45 205 0 min 0 lux 0,9 C 1,9 C
03.01.2012 05:08 4,0 C 2,4 C 1,6 C 80 % 1019 hPa 0,0 l/m 3,3 m/s (2 Bft) SW45 215 0 min 0 lux 0,9 C -0,3 C
03.01.2012 05:13 4,0 C 2,5 C 1,5 C 80 % 1019 hPa 0,0 l/m 3,5 m/s (3 Bft) S-SW45 210 0 min 0 lux 0,9 C -0,7 C
03.01.2012 05:18 4,0 C 2,5 C 1,4 C 80 % 1019 hPa 0,0 l/m 3,9 m/s (3 Bft) SW67.5 215 0 min 0 lux 0,9 C -1,6 C
03.01.2012 05:23 4,0 C 2,5 C 1,5 C 80 % 1019 hPa 0,0 l/m 6,1 m/s (4 Bft) S-SW45 210 0 min 0 lux 0,9 C -5,2 C
03.01.2012 05:28 4,0 C 2,6 C 1,6 C 80 % 1019 hPa 0,0 l/m 6,7 m/s (4 Bft) SW45 225 0 min 0 lux 0,9 C -6,0 C
03.01.2012 05:33 4,0 C 2,7 C 1,6 C 80 % 1019 hPa 0,0 l/m 5,8 m/s (4 Bft) SW67.5 220 0 min 0 lux 0,9 C -4,8 C
03.01.2012 05:38 4,0 C 2,7 C 1,5 C 80 % 1019 hPa 0,0 l/m 4,0 m/s (3 Bft) S-SW67.5 210 0 min 0 lux 0,9 C -1,8 C
03.01.2012 05:43 4,0 C 2,7 C 1,7 C 80 % 1019 hPa 0,0 l/m 6,7 m/s (4 Bft) S-SW45 210 0 min 0 lux 0,9 C -6,0 C
03.01.2012 05:48 4,0 C 2,8 C 1,6 C 80 % 1019 hPa 0,0 l/m 4,9 m/s (3 Bft) SW45 225 0 min 0 lux 0,9 C -3,4 C
03.01.2012 05:53 4,0 C 2,8 C 1,6 C 80 % 1019 hPa 0,0 l/m 3,9 m/s (3 Bft) SW22.5 230 0 min 0 lux 0,9 C -1,5 C
03.01.2012 05:58 4,0 C 2,8 C 1,4 C 80 % 1019 hPa 0,0 l/m 4,4 m/s (3 Bft) SW45 215 0 min 0 lux 0,9 C -2,6 C
03.01.2012 06:03 4,0 C 2,8 C 1,4 C 80 % 1019 hPa 0,0 l/m 5,6 m/s (4 Bft) SW45 220 0 min 0 lux 0,9 C -4,5 C
03.01.2012 06:08 4,0 C 2,7 C 1,4 C 80 % 1019 hPa 0,0 l/m 4,8 m/s (3 Bft) S-SW67.5 210 0 min 0 lux 0,9 C -3,3 C
03.01.2012 06:13 4,0 C 2,8 C 1,4 C 80 % 1019 hPa 0,0 l/m 4,6 m/s (3 Bft) SW45 225 0 min 0 lux 0,9 C -2,9 C
03.01.2012 06:18 4,0 C 2,8 C 1,6 C 80 % 1019 hPa 0,0 l/m 4,0 m/s (3 Bft) S-SW67.5 210 0 min 0 lux 0,9 C -1,9 C
03.01.2012 06:23 4,0 C 2,8 C 1,6 C 80 % 1019 hPa 0,0 l/m 2,9 m/s (2 Bft) S-SW67.5 210 0 min 0 lux 0,9 C 0,5 C
03.01.2012 06:28 4,0 C 2,8 C 1,6 C 80 % 1019 hPa 0,0 l/m 5,2 m/s (3 Bft) SW67.5 220 0 min 0 lux 0,9 C -3,9 C
03.01.2012 06:33 4,0 C 2,8 C 1,5 C 80 % 1019 hPa 0,0 l/m 4,1 m/s (3 Bft) S-SW45 210 0 min 0 lux 0,9 C -1,9 C
03.01.2012 06:38 4,0 C 2,9 C 1,5 C 80 % 1019 hPa 0,0 l/m 2,8 m/s (2 Bft) S-SW22.5 205 0 min 0 lux 0,9 C 0,8 C
03.01.2012 06:43 4,0 C 2,8 C 1,5 C 80 % 1019 hPa 0,0 l/m 3,8 m/s (3 Bft) S45 185 0 min 0 lux 0,9 C -1,5 C
03.01.2012 06:48 4,0 C 2,9 C 1,5 C 80 % 1019 hPa 0,0 l/m 2,9 m/s (2 Bft) S22.5 170 0 min 0 lux 0,9 C 0,8 C
03.01.2012 06:53 4,0 C 2,8 C 1,8 C 80 % 1019 hPa 0,0 l/m 4,5 m/s (3 Bft) S67.5 185 0 min 0 lux 0,9 C -2,8 C
03.01.2012 06:58 4,0 C 3,0 C 1,8 C 80 % 1019 hPa 0,0 l/m 4,1 m/s (3 Bft) S45 190 0 min 0 lux 0,9 C -1,9 C
03.01.2012 07:03 4,0 C 3,0 C 1,7 C 80 % 1019 hPa 0,0 l/m 3,1 m/s (2 Bft) S-SW45 195 0 min 0 lux 0,9 C 0,1 C
03.01.2012 07:08 4,0 C 2,9 C 1,7 C 79 % 1019 hPa 0,0 l/m 4,5 m/s (3 Bft) SW67.5 215 0 min 0 lux 0,7 C -2,7 C
03.01.2012 07:13 4,0 C 2,9 C 1,6 C 79 % 1019 hPa 0,0 l/m 5,9 m/s (4 Bft) S-SW67.5 195 0 min 0 lux 0,7 C -5,0 C
03.01.2012 07:18 4,0 C 2,9 C 1,7 C 79 % 1019 hPa 0,0 l/m 3,0 m/s (2 Bft) SW67.5 220 0 min 0 lux 0,7 C 0,4 C
03.01.2012 07:23 4,0 C 2,9 C 1,5 C 79 % 1018 hPa 0,0 l/m 4,0 m/s (3 Bft) SW67.5 215 0 min 0 lux 0,7 C -1,9 C
03.01.2012 07:28 4,0 C 2,9 C 1,4 C 79 % 1018 hPa 0,0 l/m 4,5 m/s (3 Bft) SW67.5 215 0 min 0 lux 0,7 C -2,8 C
03.01.2012 07:33 4,0 C 2,9 C 1,5 C 79 % 1018 hPa 0,0 l/m 7,4 m/s (4 Bft) SW67.5 215 0 min 0 lux 0,7 C -6,8 C
03.01.2012 07:38 4,0 C 3,0 C 1,7 C 79 % 1018 hPa 0,0 l/m 5,7 m/s (4 Bft) SW67.5 220 0 min 0 lux 0,7 C -4,7 C
03.01.2012 07:43 4,0 C 3,0 C 1,6 C 80 % 1018 hPa 0,0 l/m 4,0 m/s (3 Bft) SW67.5 215 0 min 0 lux 0,9 C -1,8 C
03.01.2012 07:48 4,0 C 2,9 C 1,6 C 80 % 1018 hPa 0,0 l/m 7,8 m/s (4 Bft) S-SW67.5 210 0 min 0 lux 0,9 C -7,2 C
03.01.2012 07:53 4,0 C 2,9 C 1,4 C 80 % 1018 hPa 0,0 l/m 3,6 m/s (3 Bft) SW22.5 220 0 min 0 lux 0,9 C -0,9 C
03.01.2012 07:58 4,0 C 2,8 C 1,5 C 80 % 1018 hPa 0,0 l/m 3,2 m/s (2 Bft) S67.5 185 0 min 0 lux 0,9 C -0,1 C
03.01.2012 08:03 4,0 C 2,8 C 1,5 C 80 % 1018 hPa 0,0 l/m 3,8 m/s (3 Bft) S45 170 0 min 0 lux 0,9 C -1,4 C
03.01.2012 08:08 4,0 C 2,8 C 1,5 C 80 % 1018 hPa 0,0 l/m 4,9 m/s (3 Bft) S-SW67.5 210 0 min 43 lux 0,9 C -3,5 C
03.01.2012 08:13 4,0 C 2,9 C 1,7 C 81 % 1017 hPa 0,0 l/m 5,6 m/s (4 Bft) SW67.5 220 0 min 78 lux 1,0 C -4,5 C
03.01.2012 08:18 4,0 C 2,9 C 1,8 C 82 % 1017 hPa 0,0 l/m 3,9 m/s (3 Bft) S45 185 0 min 115 lux 1,2 C -1,7 C
03.01.2012 08:23 4,0 C 3,0 C 1,8 C 81 % 1017 hPa 0,0 l/m 5,2 m/s (3 Bft) S-SW67.5 210 0 min 137 lux 1,0 C -3,9 C
03.01.2012 08:27 4,0 C 3,1 C 2,0 C 79 % 1017 hPa 0,0 l/m 6,8 m/s (4 Bft) S-SW67.5 210 0 min 256 lux 0,7 C -6,2 C
03.01.2012 08:32 4,0 C 3,2 C 2,0 C 78 % 1017 hPa 0,0 l/m 3,6 m/s (3 Bft) SW67.5 215 0 min 382 lux 0,5 C -1,1 C
03.01.2012 08:37 4,0 C 3,2 C 2,1 C 79 % 1017 hPa 0,0 l/m 6,3 m/s (4 Bft) S-SW67.5 195 0 min 533 lux 0,7 C -5,5 C
03.01.2012 08:42 4,0 C 3,3 C 2,1 C 79 % 1017 hPa 0,0 l/m 4,9 m/s (3 Bft) S67.5 180 0 min 895 lux 0,7 C -3,4 C
03.01.2012 08:47 4,0 C 3,3 C 2,1 C 79 % 1017 hPa 0,0 l/m 2,8 m/s (2 Bft) SW45 225 0 min 1,74 klux 0,7 C 0,9 C
03.01.2012 08:52 4,0 C 3,3 C 2,0 C 79 % 1017 hPa 0,0 l/m 5,7 m/s (4 Bft) S-SW67.5 195 0 min 1,94 klux 0,7 C -4,6 C
03.01.2012 08:57 4,0 C 3,3 C 2,1 C 79 % 1017 hPa 0,0 l/m 6,3 m/s (4 Bft) S-SW67.5 195 0 min 3,31 klux 0,7 C -5,5 C
03.01.2012 09:02 4,0 C 3,3 C 2,1 C 79 % 1017 hPa 0,0 l/m 4,3 m/s (3 Bft) S-SW45 205 0 min 3,77 klux 0,7 C -2,4 C
03.01.2012 09:07 4,0 C 3,3 C 2,1 C 79 % 1017 hPa 0,0 l/m 3,7 m/s (3 Bft) S-SW67.5 210 0 min 3,60 klux 0,7 C -1,2 C
03.01.2012 09:13 4,0 C 3,4 C 2,2 C 79 % 1017 hPa 0,0 l/m 5,4 m/s (3 Bft) SW67.5 230 0 min 5,18 klux 0,7 C -4,3 C
03.01.2012 09:18 4,0 C 3,4 C 2,2 C 79 % 1017 hPa 0,0 l/m 5,3 m/s (3 Bft) S-SW45 205 0 min 4,20 klux 0,7 C -4,0 C
03.01.2012 09:23 4,0 C 3,5 C 2,5 C 79 % 1017 hPa 0,0 l/m 8,1 m/s (5 Bft) SW45 220 0 min 3,95 klux 0,7 C -7,5 C
03.01.2012 09:28 4,0 C 3,6 C 2,5 C 79 % 1017 hPa 0,0 l/m 6,4 m/s (4 Bft) S-SW45 205 0 min 3,84 klux 0,7 C -5,6 C
03.01.2012 09:33 4,0 C 3,6 C 2,6 C 79 % 1017 hPa 0,0 l/m 6,9 m/s (4 Bft) SW22.5 225 0 min 3,45 klux 0,7 C -6,2 C
03.01.2012 09:38 4,0 C 3,6 C 2,6 C 79 % 1017 hPa 0,0 l/m 5,5 m/s (3 Bft) SW45 215 0 min 3,61 klux 0,7 C -4,4 C
03.01.2012 09:43 4,0 C 3,7 C 2,6 C 79 % 1017 hPa 0,0 l/m 5,0 m/s (3 Bft) SW45 230 0 min 3,90 klux 0,7 C -3,6 C
03.01.2012 09:48 4,0 C 3,8 C 2,7 C 79 % 1017 hPa 0,0 l/m 6,3 m/s (4 Bft) W-SW67.5 245 0 min 3,93 klux 0,7 C -5,4 C
03.01.2012 09:53 4,0 C 3,8 C 2,8 C 79 % 1017 hPa 0,0 l/m 6,3 m/s (4 Bft) SW67.5 220 0 min 3,04 klux 0,7 C -5,4 C
03.01.2012 09:58 4,0 C 3,8 C 2,8 C 79 % 1017 hPa 0,0 l/m 7,3 m/s (4 Bft) SW67.5 225 0 min 4,54 klux 0,7 C -6,7 C
03.01.2012 10:03 4,0 C 3,9 C 2,8 C 79 % 1017 hPa 0,0 l/m 7,0 m/s (4 Bft) S-SW67.5 205 0 min 3,90 klux 0,7 C -6,3 C
03.01.2012 10:08 4,0 C 3,9 C 2,9 C 79 % 1017 hPa 0,0 l/m 4,5 m/s (3 Bft) S-SW67.5 195 0 min 4,12 klux 0,7 C -2,7 C
03.01.2012 10:13 4,0 C 4,0 C 3,0 C 79 % 1016 hPa 0,0 l/m 5,9 m/s (4 Bft) SW67.5 215 0 min 4,06 klux 0,7 C -5,0 C
03.01.2012 10:18 4,0 C 4,0 C 3,0 C 79 % 1016 hPa 0,0 l/m 5,2 m/s (3 Bft) S-SW67.5 210 0 min 4,40 klux 0,7 C -3,9 C
03.01.2012 10:23 4,0 C 4,1 C 3,1 C 79 % 1016 hPa 0,0 l/m 6,6 m/s (4 Bft) S-SW67.5 195 0 min 5,47 klux 0,7 C -5,9 C
03.01.2012 10:28 4,0 C 4,1 C 3,1 C 78 % 1016 hPa 0,0 l/m 8,8 m/s (5 Bft) S-SW67.5 205 0 min 5,18 klux 0,5 C -8,2 C
03.01.2012 10:33 4,0 C 4,0 C 3,1 C 78 % 1016 hPa 0,0 l/m 5,3 m/s (3 Bft) S67.5 190 0 min 6,07 klux 0,5 C -4,1 C
03.01.2012 10:38 4,0 C 4,0 C 3,0 C 78 % 1016 hPa 0,0 l/m 5,5 m/s (3 Bft) SW45 220 0 min 2,54 klux 0,5 C -4,4 C
03.01.2012 10:43 4,0 C 4,0 C 3,2 C 78 % 1016 hPa 0,0 l/m 7,9 m/s (4 Bft) S-SW67.5 195 0 min 5,09 klux 0,5 C -7,4 C
03.01.2012 10:48 4,0 C 4,1 C 3,2 C 78 % 1015 hPa 0,0 l/m 6,5 m/s (4 Bft) SW22.5 225 0 min 5,40 klux 0,5 C -5,8 C
03.01.2012 10:53 4,0 C 4,1 C 3,3 C 78 % 1015 hPa 0,0 l/m 7,1 m/s (4 Bft) SW67.5 230 0 min 6,22 klux 0,5 C -6,4 C
03.01.2012 10:58 4,0 C 4,1 C 3,3 C 78 % 1015 hPa 0,0 l/m 5,4 m/s (3 Bft) SW67.5 225 0 min 4,58 klux 0,5 C -4,2 C
03.01.2012 11:03 4,0 C 4,2 C 3,3 C 78 % 1015 hPa 0,0 l/m 7,4 m/s (4 Bft) SW67.5 220 0 min 5,30 klux 0,5 C -6,8 C
03.01.2012 11:08 4,0 C 4,3 C 3,5 C 78 % 1015 hPa 0,0 l/m 7,7 m/s (4 Bft) SW67.5 215 0 min 6,45 klux 0,5 C -7,1 C
03.01.2012 11:13 4,0 C 4,4 C 3,6 C 78 % 1015 hPa 0,0 l/m 9,3 m/s (5 Bft) SW45 230 0 min 6,17 klux 0,5 C -8,7 C
03.01.2012 11:18 4,0 C 4,4 C 3,6 C 78 % 1015 hPa 0,0 l/m 5,9 m/s (4 Bft) S-SW67.5 200 0 min 6,95 klux 0,5 C -4,9 C
03.01.2012 11:23 4,0 C 4,5 C 3,7 C 78 % 1015 hPa 0,0 l/m 6,5 m/s (4 Bft) S-SW67.5 205 0 min 5,74 klux 0,5 C -5,7 C
03.01.2012 11:28 4,0 C 4,6 C 3,6 C 78 % 1014 hPa 0,0 l/m 7,6 m/s (4 Bft) SW45 220 0 min 5,43 klux 0,5 C -7,0 C
03.01.2012 11:33 4,0 C 4,7 C 3,8 C 78 % 1014 hPa 0,0 l/m 7,4 m/s (4 Bft) S-SW45 210 0 min 5,93 klux 0,5 C -6,8 C
03.01.2012 11:38 4,0 C 4,8 C 3,8 C 79 % 1014 hPa 0,0 l/m 8,2 m/s (5 Bft) SW67.5 215 0 min 5,65 klux 0,7 C -7,6 C
03.01.2012 11:43 4,0 C 4,9 C 3,9 C 78 % 1014 hPa 0,0 l/m 9,5 m/s (5 Bft) SW45 220 0 min 5,59 klux 0,5 C -8,8 C
03.01.2012 11:48 4,0 C 4,9 C 3,9 C 78 % 1014 hPa 0,0 l/m 10,4 m/s (5 Bft) SW45 225 0 min 4,20 klux 0,5 C -9,5 C
03.01.2012 11:53 4,0 C 5,0 C 4,1 C 79 % 1014 hPa 0,0 l/m 10,5 m/s (5 Bft) SW67.5 235 0 min 6,71 klux 0,7 C -9,6 C
03.01.2012 11:58 4,0 C 5,1 C 4,1 C 79 % 1013 hPa 0,0 l/m 9,3 m/s (5 Bft) SW45 225 0 min 6,82 klux 0,7 C -8,6 C
03.01.2012 12:03 8,0 C 5,1 C 4,3 C 79 % 1013 hPa 0,0 l/m 12,3 m/s (6 Bft) SW67.5 215 0 min 9,7 klux 4,6 C -4,7 C
03.01.2012 12:08 4,0 C 5,3 C 4,3 C 79 % 1013 hPa 0,0 l/m 8,9 m/s (5 Bft) SW67.5 225 0 min 8,32 klux 0,7 C -8,3 C
03.01.2012 12:13 4,0 C 5,3 C 4,3 C 79 % 1013 hPa 0,0 l/m 7,3 m/s (4 Bft) SW67.5 225 0 min 6,07 klux 0,7 C -6,7 C
03.01.2012 12:18 4,0 C 5,4 C 4,2 C 79 % 1013 hPa 0,0 l/m 8,8 m/s (5 Bft) SW45 230 0 min 4,31 klux 0,7 C -8,2 C
03.01.2012 12:23 4,0 C 5,4 C 4,2 C 79 % 1013 hPa 0,0 l/m 10,6 m/s (5 Bft) S-SW67.5 210 0 min 3,60 klux 0,7 C -9,7 C
03.01.2012 12:28 4,0 C 5,5 C 4,3 C 79 % 1013 hPa 0,0 l/m 7,9 m/s (4 Bft) SW45 225 0 min 4,74 klux 0,7 C -7,3 C
03.01.2012 12:33 4,0 C 5,5 C 4,3 C 79 % 1012 hPa 0,0 l/m 7,5 m/s (4 Bft) SW45 235 0 min 5,22 klux 0,7 C -6,9 C
03.01.2012 12:38 4,0 C 5,5 C 4,3 C 79 % 1012 hPa 0,0 l/m 7,5 m/s (4 Bft) SW67.5 230 0 min 5,20 klux 0,7 C -7,0 C
03.01.2012 12:43 4,0 C 5,5 C 4,4 C 79 % 1012 hPa 0,0 l/m 9,9 m/s (5 Bft) SW67.5 235 0 min 5,07 klux 0,7 C -9,1 C
03.01.2012 12:48 4,0 C 5,6 C 4,4 C 79 % 1012 hPa 0,0 l/m 8,9 m/s (5 Bft) SW45 235 0 min 3,80 klux 0,7 C -8,3 C
03.01.2012 12:53 4,0 C 5,6 C 4,4 C 79 % 1012 hPa 0,0 l/m 8,6 m/s (5 Bft) W-SW67.5 240 0 min 3,54 klux 0,7 C -8,0 C
03.01.2012 12:58 4,0 C 5,6 C 4,4 C 79 % 1012 hPa 0,0 l/m 12,2 m/s (6 Bft) SW45 235 0 min 3,03 klux 0,7 C -10,7 C
03.01.2012 13:03 4,0 C 5,7 C 4,3 C 79 % 1012 hPa 0,0 l/m 11,5 m/s (6 Bft) SW45 230 0 min 2,70 klux 0,7 C -10,3 C
03.01.2012 13:08 4,0 C 5,7 C 4,3 C 79 % 1012 hPa 0,0 l/m 8,3 m/s (5 Bft) SW67.5 230 0 min 1,87 klux 0,7 C -7,8 C
03.01.2012 13:13 4,0 C 5,7 C 4,3 C 79 % 1012 hPa 0,0 l/m 8,6 m/s (5 Bft) SW67.5 235 0 min 1,64 klux 0,7 C -8,0 C
03.01.2012 13:18 4,0 C 5,7 C 4,3 C 79 % 1012 hPa 0,0 l/m 6,8 m/s (4 Bft) SW22.5 230 0 min 1,85 klux 0,7 C -6,1 C
03.01.2012 13:23 4,0 C 5,7 C 4,3 C 79 % 1012 hPa 0,0 l/m 8,5 m/s (5 Bft) SW67.5 235 0 min 1,94 klux 0,7 C -7,9 C
03.01.2012 13:28 4,0 C 5,8 C 4,5 C 79 % 1012 hPa 0,0 l/m 7,5 m/s (4 Bft) SW45 230 0 min 2,26 klux 0,7 C -7,0 C
03.01.2012 13:33 4,0 C 5,8 C 4,5 C 79 % 1012 hPa 0,0 l/m 7,0 m/s (4 Bft) W-SW22.5 240 0 min 2,25 klux 0,7 C -6,3 C
03.01.2012 13:38 4,0 C 5,8 C 4,5 C 79 % 1011 hPa 0,0 l/m 5,7 m/s (4 Bft) SW45 215 0 min 2,63 klux 0,7 C -4,6 C
03.01.2012 13:43 4,0 C 5,9 C 4,6 C 79 % 1011 hPa 0,0 l/m 7,3 m/s (4 Bft) SW67.5 235 0 min 2,70 klux 0,7 C -6,7 C
03.01.2012 13:48 4,0 C 5,9 C 4,7 C 79 % 1011 hPa 0,0 l/m 6,6 m/s (4 Bft) SW45 215 0 min 3,67 klux 0,7 C -5,8 C
03.01.2012 13:53 4,0 C 6,0 C 4,8 C 79 % 1011 hPa 0,0 l/m 7,9 m/s (4 Bft) SW67.5 215 0 min 3,43 klux 0,7 C -7,3 C
03.01.2012 13:58 4,0 C 6,1 C 4,7 C 79 % 1011 hPa 0,0 l/m 7,5 m/s (4 Bft) SW67.5 230 0 min 3,02 klux 0,7 C -7,0 C
03.01.2012 14:03 4,0 C 6,1 C 4,8 C 79 % 1011 hPa 0,0 l/m 7,8 m/s (4 Bft) SW67.5 220 0 min 3,39 klux 0,7 C -7,2 C
03.01.2012 14:08 4,0 C 6,2 C 4,9 C 79 % 1011 hPa 0,0 l/m 8,1 m/s (5 Bft) SW67.5 230 0 min 1,74 klux 0,7 C -7,6 C
03.01.2012 14:13 4,0 C 6,2 C 4,8 C 79 % 1011 hPa 0,0 l/m 6,9 m/s (4 Bft) SW67.5 225 0 min 1,28 klux 0,7 C -6,3 C
03.01.2012 14:18 4,0 C 6,3 C 4,8 C 79 % 1011 hPa 0,0 l/m 9,4 m/s (5 Bft) SW67.5 215 0 min 1,00 klux 0,7 C -8,7 C
03.01.2012 14:23 4,0 C 6,3 C 4,8 C 79 % 1011 hPa 0,0 l/m 5,2 m/s (3 Bft) S-SW67.5 200 0 min 1,07 klux 0,7 C -3,9 C
03.01.2012 14:28 4,0 C 6,3 C 4,9 C 79 % 1011 hPa 0,0 l/m 6,4 m/s (4 Bft) SW67.5 215 0 min 984 lux 0,7 C -5,6 C
03.01.2012 14:33 4,0 C 6,4 C 4,9 C 79 % 1010 hPa 0,0 l/m 5,7 m/s (4 Bft) SW67.5 215 0 min 755 lux 0,7 C -4,7 C
03.01.2012 14:38 4,0 C 6,3 C 4,8 C 79 % 1010 hPa 0,0 l/m 5,7 m/s (4 Bft) SW67.5 215 0 min 837 lux 0,7 C -4,7 C
03.01.2012 14:43 4,0 C 6,3 C 4,8 C 79 % 1010 hPa 0,0 l/m 5,6 m/s (4 Bft) S-SW45 200 0 min 892 lux 0,7 C -4,5 C
03.01.2012 14:48 4,0 C 6,3 C 4,9 C 79 % 1010 hPa 0,0 l/m 5,0 m/s (3 Bft) SW67.5 225 0 min 992 lux 0,7 C -3,6 C
03.01.2012 14:53 4,0 C 6,4 C 4,9 C 79 % 1010 hPa 0,0 l/m 7,4 m/s (4 Bft) S-SW67.5 195 0 min 1,11 klux 0,7 C -6,9 C
03.01.2012 14:58 4,0 C 6,4 C 5,0 C 79 % 1010 hPa 0,0 l/m 4,9 m/s (3 Bft) SW67.5 220 0 min 1,07 klux 0,7 C -3,5 C
03.01.2012 15:02 4,0 C 6,5 C 5,0 C 79 % 1010 hPa 0,0 l/m 7,8 m/s (4 Bft) SW67.5 215 0 min 1,05 klux 0,7 C -7,2 C
03.01.2012 15:07 4,0 C 6,6 C 5,1 C 79 % 1010 hPa 0,0 l/m 6,7 m/s (4 Bft) SW67.5 215 0 min 903 lux 0,7 C -6,0 C
03.01.2012 15:12 4,0 C 6,7 C 5,2 C 79 % 1010 hPa 0,0 l/m 7,4 m/s (4 Bft) SW67.5 220 0 min 960 lux 0,7 C -6,8 C
03.01.2012 15:17 4,0 C 6,7 C 5,2 C 79 % 1009 hPa 0,0 l/m 6,7 m/s (4 Bft) SW45 215 0 min 1,12 klux 0,7 C -6,0 C
03.01.2012 15:22 4,0 C 6,8 C 5,3 C 79 % 1009 hPa 0,0 l/m 6,5 m/s (4 Bft) SW45 220 0 min 699 lux 0,7 C -5,8 C
03.01.2012 15:27 4,0 C 6,9 C 5,5 C 79 % 1009 hPa 0,0 l/m 8,0 m/s (4 Bft) SW45 220 0 min 671 lux 0,7 C -7,5 C
03.01.2012 15:32 4,0 C 7,0 C 5,4 C 79 % 1009 hPa 0,0 l/m 6,1 m/s (4 Bft) SW67.5 230 0 min 496 lux 0,7 C -5,2 C
03.01.2012 15:37 4,0 C 7,1 C 5,5 C 79 % 1009 hPa 0,0 l/m 8,6 m/s (5 Bft) SW22.5 225 0 min 509 lux 0,7 C -8,0 C
03.01.2012 15:43 4,0 C 7,2 C 5,5 C 79 % 1009 hPa 0,0 l/m 7,4 m/s (4 Bft) SW67.5 230 0 min 480 lux 0,7 C -6,8 C
03.01.2012 15:48 4,0 C 7,2 C 5,7 C 79 % 1009 hPa 0,0 l/m 10,4 m/s (5 Bft) SW67.5 230 0 min 515 lux 0,7 C -9,5 C
03.01.2012 15:53 4,0 C 7,2 C 5,3 C 79 % 1009 hPa 0,0 l/m 6,1 m/s (4 Bft) SW67.5 235 0 min 416 lux 0,7 C -5,2 C
03.01.2012 15:58 4,0 C 7,1 C 5,5 C 79 % 1009 hPa 0,0 l/m 7,8 m/s (4 Bft) S67.5 190 0 min 385 lux 0,7 C -7,2 C
03.01.2012 16:03 4,0 C 7,1 C 5,4 C 79 % 1009 hPa 0,0 l/m 7,4 m/s (4 Bft) SW67.5 225 0 min 353 lux 0,7 C -6,8 C
03.01.2012 16:08 4,0 C 7,0 C 5,4 C 79 % 1009 hPa 0,0 l/m 6,2 m/s (4 Bft) S-SW67.5 205 0 min 365 lux 0,7 C -5,4 C
03.01.2012 16:13 4,0 C 6,9 C 5,3 C 79 % 1009 hPa 0,0 l/m 7,6 m/s (4 Bft) S67.5 185 0 min 345 lux 0,7 C -7,0 C
03.01.2012 16:18 4,0 C 6,9 C 5,3 C 79 % 1009 hPa 0,0 l/m 8,0 m/s (5 Bft) SW67.5 225 0 min 307 lux 0,7 C -7,5 C
03.01.2012 16:23 4,0 C 6,8 C 5,2 C 79 % 1009 hPa 0,0 l/m 5,4 m/s (3 Bft) W-SW22.5 240 0 min 180 lux 0,7 C -4,2 C
03.01.2012 16:28 4,0 C 6,7 C 5,2 C 79 % 1009 hPa 0,0 l/m 7,1 m/s (4 Bft) S-SW45 210 0 min 134 lux 0,7 C -6,5 C
03.01.2012 16:33 4,0 C 6,7 C 5,2 C 79 % 1009 hPa 0,0 l/m 9,9 m/s (5 Bft) SW45 230 0 min 105 lux 0,7 C -9,1 C
03.01.2012 16:38 4,0 C 6,6 C 5,2 C 79 % 1008 hPa 0,0 l/m 8,2 m/s (5 Bft) S-SW45 210 0 min 84 lux 0,7 C -7,7 C
03.01.2012 16:43 4,0 C 6,5 C 5,1 C 80 % 1008 hPa 0,0 l/m 6,6 m/s (4 Bft) S-SW67.5 205 0 min 57 lux 0,9 C -5,9 C
03.01.2012 16:48 4,0 C 6,6 C 5,1 C 80 % 1008 hPa 0,0 l/m 5,3 m/s (3 Bft) S-SW45 205 0 min 40 lux 0,9 C -4,1 C
03.01.2012 16:53 4,0 C 6,5 C 5,1 C 80 % 1008 hPa 0,0 l/m 4,4 m/s (3 Bft) S-SW67.5 210 0 min 19 lux 0,9 C -2,7 C
03.01.2012 16:58 4,0 C 6,5 C 5,1 C 81 % 1008 hPa 0,0 l/m 5,2 m/s (3 Bft) S67.5 175 0 min 9 lux 1,0 C -3,9 C
03.01.2012 17:03 4,0 C 6,5 C 5,2 C 82 % 1008 hPa 0,0 l/m 3,4 m/s (2 Bft) S-SW67.5 195 0 min 3 lux 1,2 C -0,5 C
03.01.2012 17:08 4,0 C 6,5 C 5,2 C 83 % 1008 hPa 0,0 l/m 8,3 m/s (5 Bft) W-SW45 245 0 min 0 lux 1,4 C -7,8 C
03.01.2012 17:13 4,0 C 6,5 C 5,2 C 83 % 1008 hPa 0,0 l/m 6,7 m/s (4 Bft) SW67.5 225 0 min 0 lux 1,4 C -6,0 C
03.01.2012 17:18 4,0 C 6,5 C 5,2 C 83 % 1008 hPa 0,0 l/m 6,0 m/s (4 Bft) S-SW67.5 205 0 min 0 lux 1,4 C -5,1 C
03.01.2012 17:23 4,0 C 6,5 C 5,3 C 83 % 1007 hPa 0,4 l/m 10,4 m/s (5 Bft) SW67.5 225 0 min 0 lux 1,4 C -9,5 C
03.01.2012 17:28 4,0 C 6,5 C 5,3 C 83 % 1007 hPa 0,0 l/m 5,4 m/s (3 Bft) S-SW67.5 210 0 min 0 lux 1,4 C -4,3 C
03.01.2012 17:33 4,0 C 6,5 C 5,3 C 83 % 1007 hPa 0,0 l/m 6,9 m/s (4 Bft) SW45 215 0 min 0 lux 1,4 C -6,3 C
03.01.2012 17:38 4,0 C 6,5 C 5,3 C 83 % 1007 hPa 0,0 l/m 7,8 m/s (4 Bft) SW67.5 220 0 min 0 lux 1,4 C -7,3 C
03.01.2012 17:43 4,0 C 6,6 C 5,4 C 83 % 1007 hPa 0,0 l/m 7,9 m/s (4 Bft) SW45 230 0 min 0 lux 1,4 C -7,4 C
03.01.2012 17:48 4,0 C 6,6 C 5,5 C 83 % 1007 hPa 0,0 l/m 7,3 m/s (4 Bft) SW67.5 220 0 min 0 lux 1,4 C -6,7 C
03.01.2012 17:52 4,0 C 6,6 C 5,5 C 83 % 1006 hPa 0,0 l/m 7,2 m/s (4 Bft) SW67.5 230 0 min 0 lux 1,4 C -6,6 C
03.01.2012 17:58 4,0 C 6,6 C 5,6 C 83 % 1006 hPa 0,4 l/m 8,1 m/s (5 Bft) SW67.5 220 0 min 0 lux 1,4 C -7,6 C
03.01.2012 18:03 4,0 C 6,6 C 5,6 C 83 % 1006 hPa 0,0 l/m 7,8 m/s (4 Bft) SW45 235 0 min 0 lux 1,4 C -7,3 C
03.01.2012 18:08 4,0 C 6,7 C 5,6 C 83 % 1006 hPa 0,4 l/m 8,8 m/s (5 Bft) SW67.5 220 0 min 0 lux 1,4 C -8,2 C
03.01.2012 18:13 4,0 C 6,7 C 5,6 C 83 % 1006 hPa 0,4 l/m 9,4 m/s (5 Bft) SW67.5 225 0 min 0 lux 1,4 C -8,7 C
03.01.2012 18:18 4,0 C 6,7 C 5,5 C 83 % 1006 hPa 0,4 l/m 8,2 m/s (5 Bft) SW67.5 225 0 min 0 lux 1,4 C -7,6 C
03.01.2012 18:23 4,0 C 6,7 C 5,6 C 83 % 1006 hPa 0,0 l/m 7,5 m/s (4 Bft) SW67.5 225 0 min 0 lux 1,4 C -6,9 C
03.01.2012 18:28 4,0 C 6,7 C 5,6 C 83 % 1006 hPa 0,4 l/m 9,5 m/s (5 Bft) SW45 225 0 min 0 lux 1,4 C -8,8 C
03.01.2012 18:32 4,0 C 6,8 C 5,6 C 83 % 1006 hPa 0,0 l/m 7,4 m/s (4 Bft) SW67.5 215 0 min 0 lux 1,4 C -6,9 C
03.01.2012 18:37 4,0 C 6,8 C 5,7 C 83 % 1006 hPa 0,4 l/m 9,4 m/s (5 Bft) SW22.5 230 0 min 0 lux 1,4 C -8,7 C
03.01.2012 18:43 4,0 C 6,9 C 5,7 C 83 % 1006 hPa 0,0 l/m 8,2 m/s (5 Bft) SW45 230 0 min 0 lux 1,4 C -7,7 C
03.01.2012 18:48 4,0 C 7,0 C 5,8 C 83 % 1006 hPa 0,0 l/m 6,8 m/s (4 Bft) S-SW67.5 205 0 min 0 lux 1,4 C -6,1 C
03.01.2012 18:53 4,0 C 7,0 C 5,8 C 83 % 1006 hPa 0,0 l/m 7,5 m/s (4 Bft) SW67.5 225 0 min 0 lux 1,4 C -6,9 C
03.01.2012 18:58 4,0 C 7,1 C 6,0 C 83 % 1006 hPa 0,0 l/m 8,5 m/s (5 Bft) SW67.5 215 0 min 0 lux 1,4 C -7,9 C
03.01.2012 19:03 4,0 C 7,2 C 6,0 C 83 % 1006 hPa 0,0 l/m 10,9 m/s (6 Bft) SW67.5 225 0 min 0 lux 1,4 C -9,9 C
03.01.2012 19:08 4,0 C 7,2 C 6,0 C 83 % 1006 hPa 0,0 l/m 8,1 m/s (5 Bft) SW67.5 220 0 min 0 lux 1,4 C -7,6 C
03.01.2012 19:13 4,0 C 7,3 C 6,0 C 83 % 1006 hPa 0,0 l/m 6,6 m/s (4 Bft) SW45 215 0 min 0 lux 1,4 C -5,8 C
03.01.2012 19:18 4,0 C 7,3 C 6,1 C 83 % 1006 hPa 0,0 l/m 8,8 m/s (5 Bft) SW67.5 215 0 min 0 lux 1,4 C -8,2 C
03.01.2012 19:23 4,0 C 7,4 C 6,2 C 83 % 1006 hPa 0,4 l/m 8,6 m/s (5 Bft) S-SW67.5 210 0 min 0 lux 1,4 C -8,0 C
03.01.2012 19:28 4,0 C 7,4 C 6,3 C 83 % 1006 hPa 0,0 l/m 9,3 m/s (5 Bft) SW45 225 0 min 0 lux 1,4 C -8,7 C
03.01.2012 19:33 4,0 C 7,5 C 6,3 C 83 % 1006 hPa 0,0 l/m 11,8 m/s (6 Bft) SW67.5 215 0 min 0 lux 1,4 C -10,4 C
03.01.2012 19:38 4,0 C 7,6 C 6,3 C 83 % 1006 hPa 0,0 l/m 7,7 m/s (4 Bft) SW67.5 215 0 min 0 lux 1,4 C -7,2 C
03.01.2012 19:43 4,0 C 7,6 C 6,3 C 83 % 1006 hPa 0,0 l/m 7,7 m/s (4 Bft) SW45 235 0 min 0 lux 1,4 C -7,2 C
03.01.2012 19:48 4,0 C 7,7 C 6,3 C 83 % 1006 hPa 0,0 l/m 8,1 m/s (5 Bft) SW67.5 215 0 min 0 lux 1,4 C -7,6 C
03.01.2012 19:53 4,0 C 7,7 C 6,4 C 83 % 1006 hPa 0,0 l/m 7,9 m/s (4 Bft) SW45 220 0 min 0 lux 1,4 C -7,4 C
03.01.2012 19:58 4,0 C 7,8 C 6,4 C 83 % 1005 hPa 0,0 l/m 8,3 m/s (5 Bft) SW67.5 215 0 min 0 lux 1,4 C -7,8 C
03.01.2012 20:03 4,0 C 7,9 C 6,5 C 83 % 1005 hPa 0,0 l/m 10,5 m/s (5 Bft) SW67.5 225 0 min 0 lux 1,4 C -9,6 C
03.01.2012 20:08 4,0 C 8,0 C 6,5 C 83 % 1005 hPa 0,0 l/m 6,5 m/s (4 Bft) SW67.5 225 0 min 0 lux 1,4 C -5,8 C
03.01.2012 20:13 4,0 C 8,1 C 6,6 C 83 % 1005 hPa 0,0 l/m 8,4 m/s (5 Bft) SW45 220 0 min 0 lux 1,4 C -7,9 C
03.01.2012 20:18 4,0 C 8,1 C 6,6 C 83 % 1005 hPa 0,0 l/m 7,0 m/s (4 Bft) SW67.5 215 0 min 0 lux 1,4 C -6,4 C
03.01.2012 20:23 4,0 C 8,1 C 6,7 C 83 % 1005 hPa 0,0 l/m 8,3 m/s (5 Bft) SW67.5 235 0 min 0 lux 1,4 C -7,7 C
03.01.2012 20:28 4,0 C 8,1 C 6,7 C 83 % 1005 hPa 0,4 l/m 7,4 m/s (4 Bft) SW45 230 0 min 0 lux 1,4 C -6,8 C
03.01.2012 20:33 4,0 C 8,1 C 6,7 C 83 % 1005 hPa 0,0 l/m 6,1 m/s (4 Bft) SW45 235 0 min 0 lux 1,4 C -5,2 C
03.01.2012 20:38 4,0 C 8,2 C 6,8 C 83 % 1005 hPa 0,4 l/m 7,5 m/s (4 Bft) SW67.5 235 0 min 0 lux 1,4 C -6,9 C
03.01.2012 20:43 4,0 C 8,2 C 6,9 C 83 % 1005 hPa 0,0 l/m 8,2 m/s (5 Bft) W-SW45 240 0 min 0 lux 1,4 C -7,7 C
03.01.2012 20:48 4,0 C 8,2 C 7,0 C 83 % 1005 hPa 0,4 l/m 7,9 m/s (4 Bft) W-SW45 240 0 min 0 lux 1,4 C -7,4 C
03.01.2012 20:53 4,0 C 8,3 C 6,9 C 83 % 1005 hPa 0,4 l/m 7,6 m/s (4 Bft) W-SW45 240 0 min 0 lux 1,4 C -7,0 C
03.01.2012 20:58 4,0 C 8,3 C 7,0 C 83 % 1006 hPa 0,4 l/m 9,9 m/s (5 Bft) W-SW45 245 0 min 0 lux 1,4 C -9,2 C
03.01.2012 21:03 4,0 C 8,4 C 7,2 C 83 % 1006 hPa 0,4 l/m 8,6 m/s (5 Bft) W-SW22.5 250 0 min 0 lux 1,4 C -8,0 C
03.01.2012 21:08 4,0 C 8,4 C 7,1 C 83 % 1006 hPa 0,4 l/m 8,0 m/s (4 Bft) W-SW45 255 0 min 0 lux 1,4 C -7,5 C
03.01.2012 21:13 4,0 C 8,2 C 6,5 C 83 % 1007 hPa 0,4 l/m 12,9 m/s (6 Bft) W-NW67.5 295 0 min 0 lux 1,4 C -11,0 C
03.01.2012 21:17 4,0 C 7,9 C 6,3 C 83 % 1007 hPa 0,0 l/m 11,1 m/s (6 Bft) W67.5 265 0 min 0 lux 1,4 C -10,0 C
03.01.2012 21:22 4,0 C 7,8 C 6,1 C 83 % 1007 hPa 0,4 l/m 13,6 m/s (6 Bft) W45 260 0 min 0 lux 1,4 C -11,4 C
03.01.2012 21:27 4,0 C 7,7 C 6,0 C 83 % 1007 hPa 0,0 l/m 9,2 m/s (5 Bft) W-SW45 250 0 min 0 lux 1,4 C -8,6 C
03.01.2012 21:32 4,0 C 7,6 C 6,0 C 83 % 1007 hPa 0,0 l/m 7,7 m/s (4 Bft) W45 265 0 min 0 lux 1,4 C -7,2 C
03.01.2012 21:37 4,0 C 7,6 C 6,0 C 83 % 1007 hPa 0,0 l/m 6,5 m/s (4 Bft) W-SW45 250 0 min 0 lux 1,4 C -5,8 C
03.01.2012 21:43 4,0 C 7,5 C 6,0 C 83 % 1007 hPa 0,0 l/m 7,9 m/s (4 Bft) W-SW45 255 0 min 0 lux 1,4 C -7,4 C
03.01.2012 21:48 4,0 C 7,5 C 5,9 C 83 % 1007 hPa 0,0 l/m 7,9 m/s (4 Bft) W45 260 0 min 0 lux 1,4 C -7,3 C
03.01.2012 21:53 4,0 C 7,4 C 5,7 C 83 % 1007 hPa 0,0 l/m 10,8 m/s (5 Bft) W-SW67.5 250 0 min 0 lux 1,4 C -9,8 C
03.01.2012 21:58 4,0 C 7,3 C 5,6 C 83 % 1007 hPa 0,0 l/m 8,1 m/s (5 Bft) W-SW45 255 0 min 0 lux 1,4 C -7,6 C
03.01.2012 22:03 4,0 C 7,3 C 5,4 C 83 % 1007 hPa 0,0 l/m 8,9 m/s (5 Bft) W-SW45 255 0 min 0 lux 1,4 C -8,3 C
03.01.2012 22:08 4,0 C 7,3 C 5,4 C 83 % 1007 hPa 0,0 l/m 9,9 m/s (5 Bft) W-SW45 255 0 min 0 lux 1,4 C -9,1 C
03.01.2012 22:13 4,0 C 7,2 C 5,3 C 83 % 1007 hPa 0,0 l/m 8,5 m/s (5 Bft) W-SW45 255 0 min 0 lux 1,4 C -8,0 C
03.01.2012 22:18 4,0 C 7,1 C 5,1 C 83 % 1007 hPa 0,0 l/m 8,0 m/s (4 Bft) W-SW67.5 250 0 min 0 lux 1,4 C -7,5 C
03.01.2012 22:23 4,0 C 7,0 C 5,1 C 83 % 1007 hPa 0,0 l/m 8,6 m/s (5 Bft) W67.5 260 0 min 0 lux 1,4 C -8,0 C
03.01.2012 22:28 4,0 C 6,8 C 5,0 C 83 % 1007 hPa 0,0 l/m 7,4 m/s (4 Bft) W-SW45 255 0 min 0 lux 1,4 C -6,8 C
03.01.2012 22:33 4,0 C 6,7 C 5,1 C 83 % 1007 hPa 0,0 l/m 3,8 m/s (3 Bft) W45 260 0 min 0 lux 1,4 C -1,5 C
03.01.2012 22:38 4,0 C 6,7 C 5,0 C 83 % 1007 hPa 0,0 l/m 9,1 m/s (5 Bft) W-SW45 255 0 min 0 lux 1,4 C -8,4 C
03.01.2012 22:43 4,0 C 6,7 C 4,8 C 83 % 1007 hPa 0,0 l/m 7,3 m/s (4 Bft) W45 260 0 min 0 lux 1,4 C -6,7 C
03.01.2012 22:48 4,0 C 6,6 C 4,8 C 83 % 1008 hPa 0,0 l/m 6,8 m/s (4 Bft) W-SW45 255 0 min 0 lux 1,4 C -6,2 C
03.01.2012 22:53 4,0 C 6,5 C 4,6 C 83 % 1008 hPa 0,0 l/m 4,8 m/s (3 Bft) W-SW45 255 0 min 0 lux 1,4 C -3,2 C
03.01.2012 22:58 4,0 C 6,4 C 4,6 C 83 % 1008 hPa 0,0 l/m 7,0 m/s (4 Bft) W-SW22.5 250 0 min 0 lux 1,4 C -6,4 C
03.01.2012 23:03 4,0 C 6,3 C 4,5 C 83 % 1008 hPa 0,0 l/m 7,4 m/s (4 Bft) W-SW45 255 0 min 0 lux 1,4 C -6,8 C
03.01.2012 23:08 4,0 C 6,2 C 4,4 C 83 % 1008 hPa 0,0 l/m 5,8 m/s (4 Bft) W-SW45 250 0 min 0 lux 1,4 C -4,9 C
03.01.2012 23:13 4,0 C 6,1 C 4,4 C 83 % 1008 hPa 0,0 l/m 7,0 m/s (4 Bft) W45 265 0 min 0 lux 1,4 C -6,3 C
03.01.2012 23:18 4,0 C 6,1 C 4,4 C 83 % 1008 hPa 0,0 l/m 6,1 m/s (4 Bft) W-SW45 250 0 min 0 lux 1,4 C -5,2 C
03.01.2012 23:23 4,0 C 6,1 C 4,2 C 83 % 1008 hPa 0,0 l/m 6,3 m/s (4 Bft) W-SW22.5 245 0 min 0 lux 1,4 C -5,4 C
03.01.2012 23:28 4,0 C 6,0 C 4,2 C 83 % 1008 hPa 0,0 l/m 5,4 m/s (3 Bft) W-SW67.5 255 0 min 0 lux 1,4 C -4,2 C
03.01.2012 23:33 4,0 C 6,0 C 4,1 C 83 % 1008 hPa 0,0 l/m 5,1 m/s (3 Bft) W22.5 265 0 min 0 lux 1,4 C -3,7 C
03.01.2012 23:38 4,0 C 5,9 C 4,1 C 83 % 1008 hPa 0,0 l/m 4,9 m/s (3 Bft) W-SW22.5 250 0 min 0 lux 1,4 C -3,4 C
03.01.2012 23:43 4,0 C 5,8 C 4,1 C 83 % 1008 hPa 0,0 l/m 4,7 m/s (3 Bft) W-SW22.5 245 0 min 0 lux 1,4 C -3,1 C
03.01.2012 23:48 4,0 C 5,8 C 4,3 C 83 % 1008 hPa 0,0 l/m 5,6 m/s (4 Bft) W-SW45 255 0 min 0 lux 1,4 C -4,6 C
03.01.2012 23:53 4,0 C 5,8 C 4,2 C 83 % 1008 hPa 0,0 l/m 4,4 m/s (3 Bft) W-SW22.5 250 0 min 0 lux 1,4 C -2,6 C
03.01.2012 23:58 4,0 C 5,7 C 4,2 C 83 % 1008 hPa 0,0 l/m 4,2 m/s (3 Bft) W-SW22.5 250 0 min 0 lux 1,4 C -2,2 C
_ Min-Zeit 00:03 02:17 01:48 08:32 19:58 - 03:08 - - - - 08:32 21:22
Minimum _ 4,0 C 1,8 C 0,8 C 78 % 1005 hPa - 0,0 m/s (0 Bft) - - - - 0,5 C -11,4 C
_ Max-Zeit 12:03 21:03 21:03 00:03 03:38 01:08 21:22 - - 00:03 12:03 12:03 00:13
Maximum _ 8,0 C 8,4 C 7,2 C 83 % 1020 hPa 0,4 l/m 13,6 m/s
W (6 Bft)
- - 0 min 9,7 klux 4,6 C 4,0 C
Durchschnitt _ 4,0 C 4,8 C 3,6 C 81 % 1013 hPa #6,5 l/m 6,0 m/s (4 Bft) SW - #0 min. 1,05 klux 1,0 C -4,3 C